Phnom Penh, Cambodia

2:12 PM +07 on September 25, 2017 (GMT +0700)
Pochentong International

Weather History for VDPP - May, 2014

Change the Weather History Date:

Friday, May 9, 2014

  Actual Average Record
Temperature  
Mean Temperature 88 °F -  
Max Temperature 96 °F 90 °F 102 °F (2016)
Min Temperature 80 °F 78 °F 73 °F (2012)
Cooling Degree Days 23    
Growing Degree Days 38 (Base 50)    
Moisture  
Dew Point 75 °F    
Average Humidity 62    
Maximum Humidity 89    
Minimum Humidity 44    
Precipitation  
Precipitation 0.00 in - - ()
Sea Level Pressure  
Sea Level Pressure 29.73 in    
Wind  
Wind Speed 7 mph ()    
Max Wind Speed 33 mph    
Max Gust Speed 24 mph    
Visibility 6.1 miles    
Events Rain , Thunderstorm    
Averages and records for this station are not official NWS values.
T = Trace of Precipitation, MM = Missing Value Source: Averaged Metar Reports

Daily Weather History Graph

Daily Weather History Graph

Search for Another Location

Airport or City:

Trip Planner

Search our weather history database for the weather conditions in past years. The results will help you decide how hot, cold, wet, or windy it might be!

Date:

Astronomy

May. 09, 2014 Rise Set
Actual Time 5:38 AM +07 6:15 PM +07
Civil Twilight 5:16 AM +07 6:37 PM +07
Nautical Twilight 4:50 AM +07 7:03 PM +07
Astronomical Twilight 4:24 AM +07 7:30 PM +07
Moon 1:38 PM +07 (5/9) 1:23 AM +07 (5/9)
Length of Visible Light 13h 20m
Length of Day
12h 36m
Waxing Gibbous, 69% of the Moon is Illuminated
May 9
Waxing Gibbous
May 15
Full
May 21
Last Quarter
May 29
New
Jun 6
First Quarter

Hourly Weather History & Observations

Time (+07) Temp. Heat Index Dew Point Humidity Pressure Visibility Wind Dir Wind Speed Gust Speed Precip Events Conditions
6:00 AM 80.6 °F 87.1 °F 77.0 °F 89% 29.74 in 6.2 mi SSE 4.6 mph - N/A   Partly Cloudy
7:00 AM 84.2 °F 94.1 °F 77.0 °F 79% 29.77 in 5.6 mi South 4.6 mph - N/A   Unknown
8:00 AM 86.0 °F 96.9 °F 77.0 °F 74% 29.80 in 6.2 mi South 5.8 mph - N/A   Partly Cloudy
8:30 AM 87.8 °F 99.7 °F 77.0 °F 70% 29.80 in 6.2 mi SSW 5.8 mph - N/A   Scattered Clouds
9:00 AM 89.6 °F 102.2 °F 77.0 °F 66% 29.80 in 6.2 mi SSW 8.1 mph - N/A   Scattered Clouds
9:30 AM 91.4 °F 105.1 °F 77.0 °F 63% 29.80 in 6.2 mi SW 9.2 mph - N/A   Scattered Clouds
10:30 AM 91.4 °F 102.5 °F 75.2 °F 59% 29.80 in 6.2 mi SSW 8.1 mph - N/A   Scattered Clouds
11:00 AM 93.2 °F 102.4 °F 73.4 °F 52% 29.77 in 6.2 mi WSW 3.5 mph - N/A   Partly Cloudy
11:30 AM 93.2 °F 102.4 °F 73.4 °F 52% 29.77 in 6.2 mi South 6.9 mph - N/A   Partly Cloudy
12:00 PM 93.2 °F 102.4 °F 73.4 °F 52% 29.77 in 6.2 mi SW 8.1 mph - N/A   Partly Cloudy
12:30 PM 95.0 °F 104.5 °F 73.4 °F 49% 29.74 in 6.2 mi South 3.5 mph - N/A   Partly Cloudy
1:00 PM 96.8 °F 107.3 °F 73.4 °F 47% 29.74 in 6.2 mi SSW 8.1 mph - N/A   Partly Cloudy
1:30 PM 95.0 °F 103.2 °F 71.6 °F 47% 29.71 in 6.2 mi SSE 9.2 mph - N/A   Partly Cloudy
2:00 PM 96.8 °F 105.1 °F 71.6 °F 44% 29.68 in 6.2 mi South 5.8 mph - N/A   Partly Cloudy
2:30 PM 96.8 °F 105.1 °F 71.6 °F 44% 29.68 in 6.2 mi SSE 18.4 mph - N/A   Partly Cloudy
3:00 PM 95.0 °F 104.5 °F 73.4 °F 49% 29.68 in 6.2 mi South 12.7 mph 24.2 mph N/A   Partly Cloudy
3:30 PM 95.0 °F 101.3 °F 69.8 °F 44% 29.65 in 6.2 mi SSE 11.5 mph - N/A   Partly Cloudy
4:00 PM 95.0 °F 103.2 °F 71.6 °F 47% 29.65 in - North - - N/A   Partly Cloudy
4:30 PM 93.2 °F 102.4 °F 73.4 °F 52% 29.65 in 5.0 mi SSE 33.4 mph - N/A Rain , Thunderstorm Thunderstorms and Rain
5:00 PM 84.2 °F 87.3 °F 68.0 °F 58% 29.68 in 5.6 mi WSW 13.8 mph - N/A Thunderstorm Thunderstorm
5:30 PM 86.0 °F 91.8 °F 71.6 °F 62% 29.68 in 6.2 mi WSW 11.5 mph - N/A   Scattered Clouds
6:00 PM 86.0 °F 91.8 °F 71.6 °F 62% 29.68 in 6.2 mi SSW 11.5 mph - N/A   Scattered Clouds
6:30 PM 86.0 °F 93.4 °F 73.4 °F 66% 29.71 in 6.2 mi SSE 4.6 mph - N/A   Scattered Clouds
7:00 PM 87.8 °F 97.6 °F 75.2 °F 66% 29.71 in 5.6 mi SSE 9.2 mph - N/A   Scattered Clouds
7:30 PM 87.8 °F 99.7 °F 77.0 °F 70% 29.71 in 5.6 mi South 9.2 mph - N/A   Scattered Clouds
8:00 PM 87.8 °F 99.7 °F 77.0 °F 70% 29.74 in 5.6 mi SSW 6.9 mph - N/A   Scattered Clouds
8:30 PM 87.8 °F 99.7 °F 77.0 °F 70% 29.74 in 6.2 mi South 8.1 mph - N/A   Scattered Clouds
9:00 PM 87.8 °F 99.7 °F 77.0 °F 70% 29.74 in 6.2 mi SSW 5.8 mph - N/A   Scattered Clouds
9:30 PM 86.0 °F 96.9 °F 77.0 °F 74% 29.74 in 6.2 mi SSW 6.9 mph - N/A   Scattered Clouds
10:00 PM 87.8 °F 102.5 °F 78.8 °F 75% 29.77 in 6.2 mi SSW 6.9 mph - N/A   Scattered Clouds
10:30 PM 86.0 °F 96.9 °F 77.0 °F 74% 29.77 in 6.2 mi SW 8.1 mph - N/A   Scattered Clouds
11:00 PM 86.0 °F 96.9 °F 77.0 °F 74% 29.77 in 6.2 mi SSW 5.8 mph - N/A   Scattered Clouds
11:30 PM 86.0 °F 96.9 °F 77.0 °F 74% 29.77 in 6.2 mi SW 4.6 mph - N/A   Scattered Clouds